TSO106 UUWW-ULLI

Flight info

Callsign TSO106
Flight time 1h 9m
Altitude 36000
Route K0859F360 SUNUN3D SUNUN M869 RAVKA N50 NUDKO T561 ODATI T875 GENPA GENPA1B
Aircraft A346/H-SDE2E3FGHIJ3J4J5M1RWXY/LB1D1

Departure

Time 2026-05-07 23:59
Airport Vnukovo International Airport (UUWW)

Arrival

Time 2026-05-08 01:08
Airport Pulkovo Airport (ULLI)
Time Latitude Longitude Altitude Speed Heading
2026-05-07 23:33 55.59506 37.29155 692 ft 0 kts 248°
2026-05-07 23:55 55.59504 37.29150 693 ft 2 kts 248°
2026-05-07 23:55 55.59508 37.29118 692 ft 5 kts 296°
2026-05-07 23:56 55.59555 37.29067 690 ft 10 kts 344°
2026-05-07 23:56 55.59636 37.29053 688 ft 10 kts 355°
2026-05-07 23:56 55.59649 37.29050 687 ft 0 kts 351°
2026-05-07 23:57 55.59652 37.29050 687 ft 2 kts 351°
2026-05-07 23:57 55.59685 37.29035 686 ft 8 kts 342°
2026-05-07 23:57 55.59755 37.28979 683 ft 12 kts 318°
2026-05-07 23:58 55.59760 37.28839 685 ft 12 kts 250°
2026-05-07 23:58 55.59721 37.28674 683 ft 27 kts 246°
2026-05-07 23:58 55.59544 37.27855 677 ft 112 kts 248°
2026-05-07 23:58 55.59168 37.26193 671 ft 179 kts 251°
2026-05-07 23:59 55.58675 37.24065 1288 ft 191 kts 249°
2026-05-07 23:59 55.58040 37.22082 2305 ft 186 kts 240°
2026-05-07 23:59 55.57256 37.20334 3005 ft 190 kts 233°
2026-05-07 23:59 55.56397 37.18446 3428 ft 205 kts 236°
2026-05-08 00:00 55.55007 37.14624 4344 ft 226 kts 254°
2026-05-08 00:00 55.54793 37.11886 5217 ft 226 kts 269°
2026-05-08 00:00 55.54797 37.09137 6091 ft 227 kts 270°
2026-05-08 00:01 55.54969 37.06378 6902 ft 232 kts 289°
2026-05-08 00:01 55.55875 37.04041 7673 ft 243 kts 315°
2026-05-08 00:01 55.57406 37.02670 8428 ft 258 kts 344°
2026-05-08 00:01 55.59222 37.02529 9163 ft 268 kts 355°
2026-05-08 00:02 55.61103 37.02571 9706 ft 272 kts 354°
2026-05-08 00:02 55.62985 37.02586 9970 ft 272 kts 351°
2026-05-08 00:02 55.64829 37.02120 9990 ft 268 kts 338°
2026-05-08 00:02 55.66639 37.00983 10001 ft 280 kts 331°
2026-05-08 00:03 55.68370 36.99693 10010 ft 283 kts 330°
2026-05-08 00:03 55.70175 36.98332 9977 ft 283 kts 330°
2026-05-08 00:03 55.71980 36.96983 9957 ft 283 kts 331°
2026-05-08 00:03 55.73786 36.95641 9931 ft 284 kts 331°
2026-05-08 00:04 55.75643 36.94226 10225 ft 293 kts 330°
2026-05-08 00:04 55.77490 36.92809 11116 ft 291 kts 330°
2026-05-08 00:04 55.79345 36.91390 11965 ft 292 kts 330°
2026-05-08 00:04 55.81147 36.89858 12690 ft 292 kts 323°
2026-05-08 00:05 55.82861 36.87922 13391 ft 293 kts 316°
2026-05-08 00:05 55.84473 36.85663 13815 ft 305 kts 314°
2026-05-08 00:05 55.86150 36.83199 13917 ft 314 kts 314°
2026-05-08 00:05 55.87832 36.80728 13911 ft 314 kts 314°
2026-05-08 00:06 55.89517 36.78264 13922 ft 314 kts 314°
2026-05-08 00:06 55.91200 36.75813 13919 ft 314 kts 314°
2026-05-08 00:06 55.92949 36.73342 14098 ft 323 kts 316°
2026-05-08 00:06 55.94714 36.70913 14892 ft 324 kts 316°
2026-05-08 00:07 55.96483 36.68486 15713 ft 323 kts 316°
2026-05-08 00:07 55.98227 36.66074 16403 ft 326 kts 317°
2026-05-08 00:07 56.00049 36.63545 17092 ft 329 kts 317°
2026-05-08 00:07 56.01876 36.61007 17773 ft 332 kts 317°
2026-05-08 00:08 56.03684 36.58491 18429 ft 335 kts 317°
2026-05-08 00:08 56.05524 36.55930 19067 ft 338 kts 317°
2026-05-08 00:08 56.07325 36.53260 19636 ft 339 kts 310°
2026-05-08 00:08 56.08755 36.49918 20222 ft 337 kts 297°
2026-05-08 00:09 56.09709 36.46046 20589 ft 343 kts 285°
2026-05-08 00:09 56.10375 36.41857 20847 ft 356 kts 284°
2026-05-08 00:09 56.11037 36.37536 21089 ft 369 kts 283°
2026-05-08 00:09 56.11731 36.33003 21316 ft 382 kts 283°
2026-05-08 00:10 56.12452 36.28327 21549 ft 395 kts 283°
2026-05-08 00:10 56.13193 36.23539 21820 ft 406 kts 283°
2026-05-08 00:10 56.13964 36.18657 22282 ft 412 kts 284°
2026-05-08 00:10 56.14868 36.13777 22880 ft 414 kts 288°
2026-05-08 00:11 56.15905 36.09005 23440 ft 417 kts 290°
2026-05-08 00:11 56.17090 36.04288 23959 ft 422 kts 292°
2026-05-08 00:11 56.18227 36.00027 24429 ft 425 kts 293°
2026-05-08 00:11 56.19563 35.95467 24930 ft 430 kts 298°
2026-05-08 00:12 56.21329 35.91076 25449 ft 437 kts 306°
2026-05-08 00:12 56.23449 35.87156 25935 ft 445 kts 314°
2026-05-08 00:12 56.25875 35.83695 26439 ft 450 kts 319°
2026-05-08 00:12 56.28389 35.80340 26919 ft 453 kts 319°
2026-05-08 00:13 56.30955 35.76951 27364 ft 457 kts 319°
2026-05-08 00:13 56.33508 35.73573 27825 ft 460 kts 319°
2026-05-08 00:13 56.36084 35.70152 28278 ft 463 kts 319°
2026-05-08 00:13 56.38636 35.66745 28832 ft 463 kts 319°
2026-05-08 00:14 56.41206 35.63307 29499 ft 460 kts 319°
2026-05-08 00:14 56.43753 35.59890 30170 ft 458 kts 319°
2026-05-08 00:14 56.46284 35.56487 30791 ft 456 kts 318°
2026-05-08 00:14 56.48800 35.53093 31369 ft 454 kts 318°
2026-05-08 00:15 56.51325 35.49685 31962 ft 451 kts 318°
2026-05-08 00:15 56.53821 35.46305 32549 ft 448 kts 318°
2026-05-08 00:15 56.56311 35.42928 33108 ft 446 kts 317°
2026-05-08 00:15 56.58769 35.39586 33652 ft 443 kts 317°
2026-05-08 00:16 56.61189 35.36261 34170 ft 441 kts 317°
2026-05-08 00:16 56.63617 35.32913 34634 ft 440 kts 316°
2026-05-08 00:16 56.66040 35.29557 34977 ft 440 kts 315°
2026-05-08 00:16 56.68496 35.26151 35261 ft 442 kts 316°
2026-05-08 00:17 56.70929 35.22768 35521 ft 443 kts 316°
2026-05-08 00:17 56.73363 35.19387 35783 ft 444 kts 316°
2026-05-08 00:17 56.75785 35.16013 35926 ft 445 kts 316°
2026-05-08 00:17 56.78239 35.12598 35927 ft 445 kts 316°
2026-05-08 00:18 56.83173 35.05715 35934 ft 446 kts 316°
2026-05-08 00:18 56.88034 34.98904 35944 ft 446 kts 316°
2026-05-08 00:19 56.93074 34.92230 35945 ft 449 kts 319°
2026-05-08 00:19 56.98282 34.85986 35945 ft 451 kts 320°
2026-05-08 00:20 57.03545 34.79707 35951 ft 451 kts 320°
2026-05-08 00:20 57.08772 34.73437 35954 ft 451 kts 320°
2026-05-08 00:21 57.14010 34.67125 35956 ft 450 kts 320°
2026-05-08 00:21 57.19240 34.60797 35958 ft 451 kts 320°
2026-05-08 00:22 57.24469 34.54448 35954 ft 451 kts 320°
2026-05-08 00:22 57.29676 34.48110 35955 ft 452 kts 319°
2026-05-08 00:23 57.34865 34.41775 35962 ft 448 kts 319°
2026-05-08 00:23 57.40050 34.35407 35961 ft 451 kts 319°
2026-05-08 00:24 57.45245 34.29015 35962 ft 451 kts 318°
2026-05-08 00:24 57.50421 34.22621 35966 ft 451 kts 318°
2026-05-08 00:25 57.55621 34.16176 35962 ft 451 kts 318°
2026-05-08 00:25 57.60840 34.09688 35960 ft 451 kts 318°
2026-05-08 00:26 57.66018 34.03225 35971 ft 450 kts 318°
2026-05-08 00:26 57.71226 33.96702 35974 ft 451 kts 318°
2026-05-08 00:27 57.76392 33.90207 35972 ft 451 kts 318°
2026-05-08 00:27 57.81589 33.83653 35973 ft 452 kts 317°
2026-05-08 00:28 57.86768 33.77007 35971 ft 450 kts 315°
2026-05-08 00:28 57.91656 33.69824 35972 ft 447 kts 313°
2026-05-08 00:29 57.96474 33.62485 35923 ft 447 kts 313°
2026-05-08 00:29 57.98863 33.58843 35709 ft 447 kts 313°
2026-05-08 00:29 58.01274 33.55164 35373 ft 445 kts 312°
2026-05-08 00:30 58.03682 33.51487 34933 ft 445 kts 312°
2026-05-08 00:30 58.06081 33.47811 34318 ft 444 kts 312°
2026-05-08 00:30 58.08459 33.44154 33754 ft 442 kts 312°
2026-05-08 00:30 58.10842 33.40489 33211 ft 438 kts 312°
2026-05-08 00:31 58.13166 33.36914 32677 ft 435 kts 312°
2026-05-08 00:31 58.15494 33.33319 32073 ft 434 kts 312°
2026-05-08 00:31 58.17835 33.29699 31504 ft 433 kts 312°
2026-05-08 00:31 58.20150 33.26117 30956 ft 435 kts 312°
2026-05-08 00:32 58.22499 33.22477 30397 ft 435 kts 312°
2026-05-08 00:32 58.24838 33.18850 29838 ft 437 kts 312°
2026-05-08 00:32 58.27195 33.15183 29265 ft 438 kts 312°
2026-05-08 00:32 58.29516 33.11571 28702 ft 440 kts 312°
2026-05-08 00:33 58.31889 33.07870 28072 ft 442 kts 313°
2026-05-08 00:33 58.34265 33.04161 27591 ft 438 kts 313°
2026-05-08 00:33 58.36575 33.00554 27111 ft 435 kts 313°
2026-05-08 00:33 58.38836 32.97011 26656 ft 430 kts 313°
2026-05-08 00:34 58.41108 32.93444 26226 ft 426 kts 313°
2026-05-08 00:34 58.43378 32.89873 25801 ft 421 kts 313°
2026-05-08 00:34 58.45632 32.86325 25387 ft 417 kts 313°
2026-05-08 00:34 58.47841 32.82837 24958 ft 413 kts 313°
2026-05-08 00:35 58.50032 32.79369 24560 ft 409 kts 313°
2026-05-08 00:35 58.52198 32.75939 24154 ft 405 kts 313°
2026-05-08 00:35 58.54374 32.72485 23734 ft 402 kts 313°
2026-05-08 00:35 58.56487 32.69122 23323 ft 399 kts 313°
2026-05-08 00:36 58.58609 32.65743 22895 ft 396 kts 313°
2026-05-08 00:36 58.60713 32.62386 22487 ft 393 kts 313°
2026-05-08 00:36 58.62804 32.59044 22094 ft 390 kts 314°
2026-05-08 00:36 58.64855 32.55766 21692 ft 387 kts 314°
2026-05-08 00:37 58.66912 32.52469 21285 ft 384 kts 314°
2026-05-08 00:37 58.68950 32.49202 20897 ft 381 kts 314°
2026-05-08 00:37 58.70967 32.45959 20520 ft 378 kts 314°
2026-05-08 00:38 58.74958 32.39529 19716 ft 373 kts 314°
2026-05-08 00:38 58.76933 32.36339 19308 ft 371 kts 314°
2026-05-08 00:38 58.78896 32.33164 18908 ft 369 kts 314°
2026-05-08 00:38 58.80856 32.29986 18530 ft 366 kts 314°
2026-05-08 00:39 58.82791 32.26843 18138 ft 364 kts 314°
2026-05-08 00:39 58.84721 32.23708 17748 ft 363 kts 315°
2026-05-08 00:39 58.86639 32.20586 17326 ft 362 kts 315°
2026-05-08 00:39 58.88568 32.17440 16907 ft 361 kts 315°
2026-05-08 00:40 58.90463 32.14349 16490 ft 359 kts 315°
2026-05-08 00:40 58.92370 32.11232 16062 ft 359 kts 316°
2026-05-08 00:40 58.94267 32.08125 15638 ft 357 kts 316°
2026-05-08 00:40 58.96165 32.05014 15217 ft 356 kts 316°
2026-05-08 00:41 58.98071 32.01885 14793 ft 355 kts 316°
2026-05-08 00:41 58.99817 31.99014 14403 ft 354 kts 317°
2026-05-08 00:41 59.01331 31.96523 14069 ft 353 kts 317°
2026-05-08 00:41 59.03196 31.93454 13670 ft 350 kts 317°
2026-05-08 00:42 59.05047 31.90396 13282 ft 348 kts 317°
2026-05-08 00:42 59.06861 31.87395 12907 ft 345 kts 317°
2026-05-08 00:42 59.08696 31.84360 12505 ft 343 kts 317°
2026-05-08 00:42 59.10480 31.81356 12106 ft 341 kts 316°
2026-05-08 00:43 59.12201 31.78194 11706 ft 339 kts 315°
2026-05-08 00:43 59.13883 31.75019 11296 ft 337 kts 315°
2026-05-08 00:43 59.15553 31.71850 10916 ft 335 kts 315°
2026-05-08 00:43 59.17199 31.68724 10744 ft 324 kts 315°
2026-05-08 00:44 59.18773 31.65739 10671 ft 311 kts 315°
2026-05-08 00:44 59.20290 31.62856 10579 ft 299 kts 315°
2026-05-08 00:44 59.21746 31.60085 10479 ft 287 kts 315°
2026-05-08 00:44 59.23142 31.57424 10382 ft 276 kts 315°
2026-05-08 00:45 59.24494 31.54843 10306 ft 265 kts 315°
2026-05-08 00:45 59.25785 31.52377 10215 ft 256 kts 315°
2026-05-08 00:45 59.27043 31.49971 10149 ft 252 kts 315°
2026-05-08 00:45 59.28286 31.47587 9941 ft 253 kts 315°
2026-05-08 00:46 59.29554 31.45149 9585 ft 255 kts 316°
2026-05-08 00:46 59.30815 31.42724 9266 ft 255 kts 316°
2026-05-08 00:46 59.32065 31.40320 8957 ft 254 kts 316°
2026-05-08 00:46 59.33322 31.37901 8658 ft 253 kts 316°
2026-05-08 00:47 59.34565 31.35505 8371 ft 252 kts 316°
2026-05-08 00:47 59.35817 31.33090 8077 ft 251 kts 316°
2026-05-08 00:47 59.37055 31.30697 7790 ft 249 kts 316°
2026-05-08 00:47 59.38275 31.28338 7502 ft 248 kts 317°
2026-05-08 00:48 59.39498 31.25972 7217 ft 247 kts 317°
2026-05-08 00:48 59.40723 31.23599 6940 ft 246 kts 317°
2026-05-08 00:48 59.41935 31.21251 6662 ft 245 kts 317°
2026-05-08 00:48 59.43149 31.18895 6384 ft 245 kts 317°
2026-05-08 00:49 59.44342 31.16579 6112 ft 244 kts 317°
2026-05-08 00:49 59.45548 31.14235 5838 ft 243 kts 317°
2026-05-08 00:49 59.46745 31.11901 5564 ft 241 kts 318°
2026-05-08 00:49 59.47931 31.09588 5292 ft 240 kts 318°
2026-05-08 00:50 59.49113 31.07277 5106 ft 236 kts 318°
2026-05-08 00:50 59.50254 31.05046 5096 ft 224 kts 318°
2026-05-08 00:50 59.51375 31.03072 5103 ft 206 kts 331°
2026-05-08 00:50 59.52656 31.02284 5083 ft 186 kts 356°
2026-05-08 00:51 59.53923 31.02308 5094 ft 181 kts
2026-05-08 00:51 59.55186 31.02408 5099 ft 181 kts
2026-05-08 00:51 59.56442 31.02506 5101 ft 181 kts
2026-05-08 00:51 59.57697 31.02595 5102 ft 180 kts
2026-05-08 00:52 59.58940 31.02842 5100 ft 181 kts 11°
2026-05-08 00:52 59.60074 31.03577 5104 ft 182 kts 22°
2026-05-08 00:52 59.61200 31.04697 5105 ft 182 kts 26°
2026-05-08 00:52 59.62326 31.05887 5101 ft 183 kts 26°
2026-05-08 00:53 59.63434 31.07065 5100 ft 182 kts 26°
2026-05-08 00:53 59.64555 31.08252 5101 ft 182 kts 26°
2026-05-08 00:53 59.65663 31.09423 5100 ft 182 kts 26°
2026-05-08 00:53 59.66798 31.10509 5099 ft 182 kts 19°
2026-05-08 00:54 59.67986 31.11161 5080 ft 171 kts
2026-05-08 00:54 59.69134 31.11450 5082 ft 164 kts
2026-05-08 00:54 59.70271 31.11683 5095 ft 164 kts
2026-05-08 00:54 59.71410 31.11911 5099 ft 164 kts
2026-05-08 00:55 59.72542 31.12139 5101 ft 164 kts
2026-05-08 00:55 59.73672 31.12369 5103 ft 164 kts
2026-05-08 00:55 59.74807 31.12601 5102 ft 164 kts
2026-05-08 00:55 59.75934 31.12647 5103 ft 164 kts 356°
2026-05-08 00:56 59.77064 31.12303 5105 ft 164 kts 347°
2026-05-08 00:56 59.78159 31.11702 5103 ft 164 kts 345°
2026-05-08 00:56 59.79263 31.11065 5104 ft 163 kts 345°
2026-05-08 00:56 59.80341 31.10439 5104 ft 163 kts 345°
2026-05-08 00:57 59.81387 31.09560 5096 ft 165 kts 326°
2026-05-08 00:57 59.82162 31.07866 5104 ft 169 kts 302°
2026-05-08 00:57 59.82532 31.05615 5086 ft 175 kts 279°
2026-05-08 00:57 59.82392 31.03206 5016 ft 180 kts 253°
2026-05-08 00:58 59.81732 31.01050 4984 ft 181 kts 234°
2026-05-08 00:58 59.80892 30.99167 4982 ft 186 kts 231°
2026-05-08 00:58 59.80006 30.97265 4977 ft 184 kts 231°
2026-05-08 00:58 59.79158 30.95441 4965 ft 179 kts 231°
2026-05-08 00:59 59.78319 30.93615 4972 ft 179 kts 232°
2026-05-08 00:59 59.77486 30.91788 4976 ft 179 kts 232°
2026-05-08 00:59 59.76664 30.89976 4980 ft 178 kts 232°
2026-05-08 00:59 59.75832 30.88141 4978 ft 177 kts 232°
2026-05-08 01:00 59.75006 30.86317 4978 ft 177 kts 232°
2026-05-08 01:00 59.74190 30.84519 4979 ft 177 kts 232°
2026-05-08 01:00 59.73371 30.82716 4981 ft 177 kts 232°
2026-05-08 01:00 59.72541 30.80890 4854 ft 177 kts 232°
2026-05-08 01:01 59.71724 30.79093 4624 ft 176 kts 232°
2026-05-08 01:01 59.70906 30.77295 4416 ft 175 kts 232°
2026-05-08 01:01 59.70100 30.75525 4221 ft 174 kts 233°
2026-05-08 01:01 59.69275 30.73709 4024 ft 178 kts 233°
2026-05-08 01:02 59.68234 30.71263 3752 ft 172 kts 247°
2026-05-08 01:02 59.67955 30.69827 3605 ft 165 kts 265°
2026-05-08 01:02 59.67972 30.67618 3412 ft 158 kts 290°
2026-05-08 01:02 59.68435 30.65691 3423 ft 158 kts 312°
2026-05-08 01:03 59.69250 30.64217 3463 ft 160 kts 327°
2026-05-08 01:03 59.70156 30.62959 3470 ft 161 kts 328°
2026-05-08 01:03 59.71080 30.61699 3299 ft 161 kts 328°
2026-05-08 01:03 59.71994 30.60444 3081 ft 160 kts 328°
2026-05-08 01:04 59.72905 30.59187 2880 ft 159 kts 327°
2026-05-08 01:04 59.73810 30.57936 2687 ft 159 kts 327°
2026-05-08 01:04 59.74588 30.56415 2477 ft 160 kts 304°
2026-05-08 01:04 59.75050 30.54435 2431 ft 158 kts 295°
2026-05-08 01:05 59.75439 30.52373 2460 ft 158 kts 294°
2026-05-08 01:05 59.75783 30.50330 2445 ft 158 kts 292°
2026-05-08 01:05 59.76102 30.48266 2255 ft 157 kts 291°
2026-05-08 01:05 59.76408 30.46196 2033 ft 156 kts 290°
2026-05-08 01:06 59.76710 30.44118 1813 ft 156 kts 290°
2026-05-08 01:06 59.77010 30.42062 1595 ft 155 kts 288°
2026-05-08 01:06 59.77233 30.40521 1430 ft 155 kts 289°
2026-05-08 01:06 59.77524 30.38460 1200 ft 154 kts 288°
2026-05-08 01:07 59.77811 30.36414 962 ft 154 kts 288°
2026-05-08 01:07 59.78114 30.34401 728 ft 153 kts 287°
2026-05-08 01:07 59.78416 30.32352 598 ft 153 kts 287°
2026-05-08 01:07 59.78724 30.30350 354 ft 152 kts 286°
2026-05-08 01:08 59.79020 30.28356 139 ft 151 kts 285°
2026-05-08 01:08 59.79282 30.26567 95 ft 106 kts 285°
2026-05-08 01:08 59.79431 30.25586 94 ft 42 kts 286°
2026-05-08 01:08 59.79516 30.25016 95 ft 44 kts 286°
2026-05-08 01:09 59.79609 30.24402 91 ft 49 kts 286°
2026-05-08 01:09 59.79654 30.24097 91 ft 50 kts 286°
2026-05-08 01:09 59.79747 30.23484 90 ft 40 kts 289°
2026-05-08 01:09 59.79877 30.23096 87 ft 12 kts 314°
2026-05-08 01:10 59.79886 30.23079 87 ft 0 kts 315°
2026-05-08 01:11 59.79887 30.23078 87 ft 1 kts 315°
2026-05-08 01:11 59.79908 30.23043 87 ft 6 kts 326°
2026-05-08 01:11 59.79955 30.23039 87 ft 6 kts 29°
2026-05-08 01:12 59.79971 30.23131 87 ft 8 kts 89°
2026-05-08 01:12 59.79957 30.23271 87 ft 11 kts 106°
2026-05-08 01:12 59.79932 30.23445 89 ft 13 kts 106°
2026-05-08 01:12 59.79903 30.23638 90 ft 15 kts 106°
2026-05-08 01:13 59.79871 30.23852 91 ft 17 kts 106°
2026-05-08 01:13 59.79836 30.24088 91 ft 18 kts 106°
2026-05-08 01:13 59.79797 30.24350 91 ft 20 kts 106°
2026-05-08 01:13 59.79756 30.24620 91 ft 22 kts 107°
2026-05-08 01:14 59.79715 30.24900 96 ft 18 kts 105°
2026-05-08 01:14 59.79680 30.25146 98 ft 19 kts 105°
2026-05-08 01:14 59.79640 30.25415 97 ft 21 kts 106°
2026-05-08 01:14 59.79594 30.25713 96 ft 23 kts 106°
2026-05-08 01:15 59.79558 30.25961 96 ft 17 kts 105°
2026-05-08 01:15 59.79531 30.26151 95 ft 10 kts 105°
2026-05-08 01:15 59.79533 30.26273 94 ft 10 kts 51°
2026-05-08 01:15 59.79606 30.26344 94 ft 13 kts 19°
2026-05-08 01:16 59.79702 30.26406 94 ft 15 kts 15°
2026-05-08 01:16 59.79768 30.26443 94 ft 0 kts 15°
2026-05-08 01:16 59.79782 30.26452 94 ft 3 kts 25°
2026-05-08 01:16 59.79809 30.26508 95 ft 7 kts 64°
2026-05-08 01:17 59.79808 30.26598 95 ft 1 kts 106°
2026-05-08 01:17 59.79802 30.26643 95 ft 0 kts 106°
2026-05-08 01:17 59.79801 30.26650 95 ft 0 kts 106°